ROMMA est une association bénévole à but non lucratif. Votre soutien est indispensable : ADHERER à ROMMA ou FAIRE un DON

Lélex - (01, Ain)

Jura Gessien (910 m)   Longitude: 5° 56' E   Latitude: 46° 18' N Station partenaire n°103
 

Détail journalier du     <<     >>

Température Precipitation Humidité Vent Dir Rafale Dir. rafale Ensol.
Heure (°C) (mm) (%) (km/h) (km/h) (min)
01:00 2.10881NE8NNE0
02:00 1.70865NE21NNE0
03:00 2.10836NE16ESE0
04:00 2.60835NE11NNE0
05:00 2.70813NE11NNE0
06:00 1.10882NE8NNE0
07:00 1.20883NNE11NNE0
08:00 1.70901NNE6NNE0
09:00 5.30801E15E0
10:00 7.40767E21E0
11:00 9.70685NE15SO5
12:00 10.80644ENE18N55
13:00 11.80596N23E60
14:00 12.70588NNE29NE60
15:00 13.30597NNE26NNE60
16:00 13.90627NNE23N60
17:00 14.20597NNE24SSE60
18:00 14.10597NE29NE60
19:00 12.30669ENE26E30
20:00 10.90718E26E10
21:00 8.70801E5ENE0
22:00 6.90841SE8E0
23:00 5.308905NE0
minuit 5.20881NE6NO0

Graphique du 30-04-2019

 

Serveur OMMA